QPF
0.00 0.00 0.00 0.00 0.00 0.00 0.00 0.00 0.00 0.00 0.00 0.00 0.00 0.00 0.00 0.01 0.01 0.02 0.05 0.08 0.12 0.16 0.19 0.20 0.20 0.19 0.18 0.12 0.09 0.06 0.05 0.04 0.04 0.03 0.03 0.03 0.02 0.01 0.01 0.01 0.01 0.01 0.01
0.00 0.00 0.00 0.00 0.00 0.00 0.00 0.00 0.00 0.00 0.00 0.00 0.00 0.00 0.00 0.00 0.00 0.01 0.02 0.04 0.07 0.12 0.18 0.21 0.22 0.23 0.23 0.21 0.16 0.10 0.07 0.06 0.05 0.06 0.04 0.04 0.03 0.02 0.01 0.01 0.01 0.00 0.00
0.00 0.00 0.00 0.00 0.00 0.00 0.00 0.00 0.00 0.00 0.00 0.00 0.00 0.00 0.00 0.00 0.00 0.00 0.00 0.01 0.03 0.08 0.14 0.19 0.25 0.28 0.25 0.24 0.21 0.16 0.12 0.09 0.08 0.07 0.06 0.06 0.04 0.02 0.02 0.01 0.01 0.01 0.00
0.00 0.00 0.00 0.00 0.00 0.00 0.00 0.00 0.00 0.00 0.01 0.01 0.01 0.00 0.00 0.00 0.00 0.00 0.00 0.00 0.01 0.03 0.07 0.13 0.19 0.25 0.28 0.27 0.25 0.21 0.18 0.14 0.11 0.09 0.09 0.07 0.04 0.03 0.02 0.02 0.02 0.01 0.00
0.00 0.00 0.00 0.00 0.00 0.00 0.00 0.00 0.01 0.01 0.01 0.01 0.01 0.01 0.01 0.01 0.00 0.00 0.00 0.00 0.00 0.01 0.02 0.07 0.13 0.19 0.24 0.27 0.27 0.25 0.22 0.17 0.13 0.10 0.09 0.08 0.05 0.03 0.03 0.02 0.01 0.01 0.01
0.00 0.00 0.00 0.00 0.01 0.01 0.01 0.01 0.01 0.01 0.02 0.02 0.03 0.03 0.02 0.01 0.00 0.00 0.01 0.01 0.01 0.01 0.01 0.02 0.06 0.14 0.19 0.24 0.26 0.27 0.25 0.20 0.15 0.11 0.09 0.08 0.05 0.03 0.02 0.01 0.01 0.01 0.02
0.00 0.00 0.00 0.01 0.01 0.01 0.01 0.02 0.02 0.03 0.04 0.04 0.05 0.05 0.05 0.04 0.01 0.01 0.00 0.01 0.01 0.01 0.01 0.02 0.02 0.05 0.12 0.18 0.24 0.26 0.24 0.21 0.17 0.15 0.13 0.10 0.08 0.04 0.03 0.02 0.01 0.02 0.02
0.00 0.01 0.01 0.01 0.02 0.02 0.03 0.03 0.04 0.06 0.07 0.08 0.08 0.08 0.08 0.06 0.03 0.01 0.00 0.01 0.02 0.02 0.02 0.01 0.01 0.02 0.05 0.11 0.18 0.23 0.21 0.18 0.15 0.12 0.12 0.15 0.13 0.09 0.06 0.03 0.02 0.02 0.02
0.01 0.01 0.01 0.02 0.03 0.04 0.05 0.05 0.07 0.08 0.09 0.10 0.10 0.10 0.10 0.09 0.05 0.03 0.01 0.02 0.04 0.03 0.03 0.01 0.01 0.01 0.02 0.05 0.11 0.17 0.21 0.19 0.15 0.13 0.12 0.13 0.12 0.10 0.08 0.06 0.04 0.02 0.02
0.01 0.01 0.02 0.03 0.05 0.05 0.06 0.07 0.08 0.10 0.10 0.11 0.11 0.11 0.11 0.11 0.08 0.04 0.03 0.04 0.05 0.05 0.05 0.03 0.01 0.01 0.01 0.02 0.05 0.11 0.15 0.18 0.16 0.11 0.09 0.08 0.08 0.07 0.06 0.05 0.04 0.02 0.02
0.01 0.02 0.02 0.03 0.05 0.05 0.06 0.08 0.10 0.12 0.12 0.12 0.11 0.12 0.13 0.12 0.10 0.05 0.03 0.04 0.05 0.06 0.05 0.03 0.02 0.00 0.00 0.02 0.03 0.06 0.11 0.14 0.15 0.14 0.10 0.09 0.09 0.08 0.06 0.06 0.04 0.03 0.02
0.02 0.02 0.02 0.03 0.04 0.05 0.07 0.08 0.11 0.12 0.12 0.12 0.11 0.11 0.12 0.11 0.10 0.07 0.03 0.02 0.04 0.07 0.06 0.04 0.02 0.00 0.00 0.01 0.02 0.04 0.08 0.12 0.14 0.14 0.12 0.10 0.08 0.07 0.07 0.07 0.07 0.06 0.05
0.02 0.02 0.03 0.03 0.04 0.06 0.08 0.08 0.09 0.10 0.12 0.13 0.11 0.10 0.10 0.11 0.09 0.06 0.03 0.01 0.01 0.06 0.07 0.04 0.02 0.00 0.00 0.01 0.02 0.03 0.06 0.08 0.12 0.12 0.11 0.09 0.07 0.06 0.06 0.07 0.08 0.07 0.07
0.02 0.02 0.02 0.03 0.05 0.06 0.06 0.07 0.08 0.10 0.11 0.10 0.11 0.10 0.09 0.09 0.09 0.06 0.04 0.02 0.01 0.01 0.04 0.02 0.00 0.00 0.00 0.01 0.02 0.03 0.05 0.08 0.11 0.11 0.10 0.10 0.09 0.08 0.07 0.06 0.06 0.06 0.07
0.02 0.02 0.02 0.03 0.04 0.04 0.05 0.05 0.06 0.08 0.07 0.06 0.09 0.09 0.08 0.08 0.07 0.05 0.05 0.04 0.03 0.03 0.05 0.05 0.02 0.01 0.01 0.02 0.03 0.05 0.08 0.12 0.14 0.15 0.12 0.11 0.10 0.10 0.08 0.06 0.05 0.05 0.05
0.03 0.02 0.02 0.03 0.04 0.04 0.05 0.05 0.04 0.03 0.02 0.02 0.03 0.04 0.05 0.04 0.02 0.01 0.01 0.01 0.01 0.01 0.03 0.05 0.03 0.02 0.02 0.03 0.04 0.07 0.11 0.14 0.16 0.16 0.14 0.12 0.11 0.10 0.09 0.07 0.06 0.06 0.06
0.03 0.02 0.02 0.03 0.04 0.05 0.06 0.06 0.07 0.05 0.03 0.02 0.02 0.02 0.02 0.01 0.01 0.00 0.00 0.00 0.00 0.00 0.02 0.04 0.03 0.02 0.03 0.04 0.06 0.08 0.12 0.15 0.19 0.19 0.15 0.13 0.11 0.10 0.09 0.08 0.06 0.06 0.05
0.03 0.03 0.02 0.03 0.05 0.05 0.06 0.07 0.07 0.07 0.08 0.05 0.02 0.02 0.02 0.01 0.01 0.01 0.01 0.01 0.01 0.01 0.02 0.03 0.03 0.03 0.03 0.05 0.07 0.10 0.15 0.18 0.20 0.22 0.20 0.15 0.13 0.10 0.09 0.07 0.07 0.06 0.04
0.03 0.02 0.02 0.03 0.05 0.05 0.05 0.07 0.06 0.06 0.07 0.07 0.05 0.03 0.02 0.02 0.01 0.01 0.01 0.02 0.02 0.02 0.02 0.03 0.03 0.04 0.04 0.06 0.08 0.11 0.16 0.21 0.21 0.21 0.22 0.19 0.13 0.11 0.09 0.07 0.06 0.06 0.04
0.03 0.02 0.02 0.03 0.04 0.05 0.06 0.07 0.07 0.06 0.06 0.06 0.05 0.03 0.02 0.02 0.02 0.01 0.01 0.03 0.03 0.03 0.03 0.03 0.03 0.04 0.05 0.08 0.10 0.14 0.18 0.24 0.23 0.20 0.21 0.19 0.15 0.11 0.08 0.06 0.05 0.04 0.03
0.02 0.02 0.02 0.03 0.03 0.04 0.05 0.06 0.07 0.07 0.07 0.06 0.04 0.03 0.03 0.03 0.04 0.03 0.03 0.04 0.04 0.04 0.04 0.04 0.04 0.05 0.06 0.10 0.12 0.15 0.18 0.21 0.22 0.19 0.18 0.17 0.14 0.11 0.08 0.06 0.04 0.03 0.02
0.02 0.02 0.02 0.03 0.03 0.03 0.03 0.05 0.06 0.07 0.06 0.05 0.04 0.03 0.04 0.05 0.06 0.05 0.05 0.05 0.05 0.05 0.05 0.04 0.05 0.06 0.08 0.11 0.13 0.14 0.15 0.17 0.17 0.15 0.13 0.12 0.11 0.09 0.07 0.05 0.03 0.02 0.01
0.01 0.01 0.02 0.02 0.02 0.02 0.03 0.04 0.05 0.05 0.05 0.05 0.05 0.05 0.05 0.05 0.06 0.07 0.07 0.07 0.07 0.06 0.06 0.07 0.08 0.09 0.10 0.12 0.12 0.11 0.10 0.10 0.10 0.08 0.07 0.06 0.07 0.06 0.04 0.03 0.02 0.01 0.01
0.01 0.01 0.01 0.02 0.02 0.02 0.03 0.04 0.04 0.04 0.04 0.04 0.04 0.05 0.05 0.06 0.07 0.08 0.09 0.10 0.09 0.08 0.09 0.09 0.10 0.09 0.09 0.09 0.09 0.07 0.05 0.05 0.05 0.04 0.03 0.03 0.03 0.03 0.02 0.01 0.01 0.01 0.00
0.01 0.01 0.01 0.01 0.02 0.02 0.03 0.04 0.04 0.04 0.04 0.05 0.06 0.07 0.07 0.08 0.10 0.11 0.12 0.10 0.09 0.10 0.10 0.10 0.09 0.09 0.07 0.05 0.04 0.03 0.03 0.03 0.03 0.02 0.01 0.01 0.01 0.02 0.01 0.01 0.00 0.00 0.00
0.01 0.01 0.01 0.01 0.01 0.02 0.03 0.03 0.03 0.03 0.04 0.05 0.07 0.08 0.08 0.08 0.09 0.09 0.09 0.08 0.08 0.09 0.08 0.07 0.07 0.06 0.04 0.03 0.02 0.01 0.01 0.01 0.01 0.01 0.00 0.00 0.00 0.01 0.00 0.00 0.00 0.00 0.00
MSLP
1011.13 1010.99 1010.82 1010.58 1010.29 1009.95 1009.58 1009.22 1008.90 1008.65 1008.47 1008.37 1008.35 1008.38 1008.45 1008.54 1008.64 1008.75 1008.85 1008.95 1009.05 1009.14 1009.22 1009.27 1009.28 1009.23 1009.14 1009.00 1008.84 1008.68 1008.58 1008.56 1008.66 1008.89 1009.26 1009.76 1010.35 1010.98 1011.62 1012.21 1012.72 1013.13 1013.43
1010.74 1010.58 1010.38 1010.13 1009.83 1009.48 1009.11 1008.74 1008.39 1008.10 1007.86 1007.70 1007.61 1007.58 1007.60 1007.67 1007.77 1007.90 1008.06 1008.25 1008.45 1008.65 1008.82 1008.96 1009.04 1009.04 1008.96 1008.81 1008.63 1008.45 1008.33 1008.29 1008.39 1008.65 1009.07 1009.63 1010.30 1011.03 1011.76 1012.44 1013.04 1013.51 1013.86
1010.39 1010.20 1009.97 1009.70 1009.38 1009.02 1008.64 1008.25 1007.88 1007.55 1007.28 1007.06 1006.91 1006.82 1006.79 1006.81 1006.89 1007.03 1007.23 1007.47 1007.74 1008.03 1008.30 1008.52 1008.67 1008.73 1008.69 1008.57 1008.40 1008.22 1008.08 1008.05 1008.15 1008.42 1008.86 1009.47 1010.19 1010.98 1011.77 1012.53 1013.19 1013.73 1014.13
1010.08 1009.85 1009.58 1009.27 1008.93 1008.55 1008.15 1007.75 1007.37 1007.02 1006.72 1006.46 1006.26 1006.11 1006.02 1006.00 1006.05 1006.17 1006.36 1006.63 1006.95 1007.29 1007.64 1007.94 1008.17 1008.30 1008.32 1008.25 1008.12 1007.96 1007.84 1007.80 1007.91 1008.18 1008.62 1009.24 1009.97 1010.79 1011.62 1012.41 1013.12 1013.72 1014.18
1009.78 1009.50 1009.18 1008.83 1008.45 1008.04 1007.63 1007.22 1006.83 1006.48 1006.16 1005.88 1005.64 1005.45 1005.31 1005.23 1005.23 1005.31 1005.48 1005.74 1006.08 1006.46 1006.85 1007.22 1007.53 1007.74 1007.84 1007.84 1007.76 1007.65 1007.56 1007.54 1007.65 1007.91 1008.34 1008.93 1009.65 1010.46 1011.29 1012.10 1012.84 1013.48 1014.01
1009.44 1009.11 1008.74 1008.34 1007.92 1007.48 1007.05 1006.63 1006.24 1005.88 1005.56 1005.27 1005.01 1004.79 1004.61 1004.48 1004.43 1004.46 1004.60 1004.84 1005.17 1005.56 1005.99 1006.42 1006.79 1007.08 1007.27 1007.35 1007.35 1007.29 1007.24 1007.24 1007.35 1007.59 1007.99 1008.55 1009.23 1010.00 1010.81 1011.61 1012.37 1013.05 1013.63
1009.03 1008.64 1008.22 1007.77 1007.30 1006.82 1006.37 1005.94 1005.55 1005.20 1004.88 1004.60 1004.33 1004.10 1003.89 1003.74 1003.65 1003.64 1003.74 1003.95 1004.27 1004.67 1005.12 1005.58 1006.01 1006.37 1006.64 1006.80 1006.87 1006.88 1006.87 1006.90 1007.00 1007.23 1007.59 1008.10 1008.73 1009.45 1010.23 1011.02 1011.78 1012.48 1013.12
1008.51 1008.08 1007.60 1007.10 1006.58 1006.07 1005.59 1005.14 1004.75 1004.41 1004.11 1003.83 1003.59 1003.36 1003.16 1003.00 1002.89 1002.87 1002.95 1003.14 1003.45 1003.84 1004.30 1004.79 1005.26 1005.67 1006.00 1006.22 1006.35 1006.42 1006.45 1006.51 1006.62 1006.82 1007.16 1007.62 1008.21 1008.88 1009.62 1010.39 1011.15 1011.88 1012.57
1007.91 1007.43 1006.91 1006.35 1005.78 1005.23 1004.72 1004.26 1003.87 1003.53 1003.25 1003.00 1002.79 1002.59 1002.42 1002.28 1002.19 1002.18 1002.26 1002.45 1002.76 1003.15 1003.61 1004.11 1004.59 1005.03 1005.39 1005.66 1005.83 1005.94 1006.01 1006.08 1006.20 1006.40 1006.72 1007.16 1007.71 1008.36 1009.07 1009.82 1010.58 1011.33 1012.04
1007.26 1006.73 1006.16 1005.56 1004.95 1004.36 1003.82 1003.34 1002.95 1002.62 1002.36 1002.15 1001.97 1001.83 1001.71 1001.62 1001.58 1001.61 1001.72 1001.93 1002.24 1002.63 1003.08 1003.57 1004.05 1004.48 1004.85 1005.12 1005.32 1005.44 1005.54 1005.63 1005.77 1005.98 1006.30 1006.74 1007.29 1007.92 1008.63 1009.38 1010.14 1010.89 1011.61
1006.59 1006.03 1005.42 1004.77 1004.12 1003.50 1002.94 1002.45 1002.05 1001.74 1001.50 1001.33 1001.21 1001.13 1001.08 1001.07 1001.10 1001.18 1001.34 1001.57 1001.89 1002.28 1002.72 1003.17 1003.62 1004.02 1004.36 1004.62 1004.81 1004.94 1005.05 1005.17 1005.34 1005.58 1005.93 1006.39 1006.96 1007.61 1008.33 1009.08 1009.84 1010.59 1011.31
1005.96 1005.36 1004.71 1004.03 1003.36 1002.71 1002.13 1001.64 1001.24 1000.95 1000.74 1000.62 1000.56 1000.55 1000.58 1000.65 1000.75 1000.90 1001.11 1001.37 1001.70 1002.07 1002.47 1002.88 1003.27 1003.61 1003.90 1004.13 1004.29 1004.42 1004.55 1004.70 1004.90 1005.20 1005.60 1006.12 1006.73 1007.42 1008.16 1008.92 1009.68 1010.42 1011.11
1005.39 1004.76 1004.08 1003.37 1002.68 1002.02 1001.44 1000.95 1000.57 1000.30 1000.13 1000.06 1000.07 1000.13 1000.23 1000.37 1000.54 1000.75 1000.99 1001.27 1001.59 1001.93 1002.28 1002.62 1002.94 1003.21 1003.44 1003.61 1003.75 1003.88 1004.02 1004.21 1004.48 1004.84 1005.31 1005.89 1006.57 1007.31 1008.08 1008.87 1009.62 1010.33 1010.99
1004.89 1004.22 1003.51 1002.78 1002.08 1001.43 1000.86 1000.39 1000.04 999.81 999.69 999.68 999.74 999.86 1000.03 1000.22 1000.44 1000.68 1000.94 1001.21 1001.49 1001.78 1002.07 1002.33 1002.57 1002.77 1002.93 1003.06 1003.18 1003.31 1003.48 1003.71 1004.05 1004.48 1005.04 1005.70 1006.44 1007.23 1008.04 1008.84 1009.59 1010.28 1010.88
1004.44 1003.73 1002.99 1002.26 1001.55 1000.92 1000.38 999.95 999.65 999.47 999.41 999.45 999.56 999.73 999.93 1000.16 1000.39 1000.63 1000.87 1001.11 1001.34 1001.57 1001.77 1001.96 1002.12 1002.25 1002.36 1002.46 1002.57 1002.71 1002.92 1003.22 1003.62 1004.13 1004.76 1005.49 1006.30 1007.14 1007.97 1008.78 1009.52 1010.17 1010.73
1004.01 1003.26 1002.50 1001.76 1001.07 1000.48 999.98 999.61 999.37 999.26 999.25 999.33 999.49 999.68 999.90 1000.12 1000.34 1000.54 1000.74 1000.92 1001.08 1001.23 1001.36 1001.48 1001.57 1001.66 1001.74 1001.83 1001.96 1002.13 1002.39 1002.74 1003.21 1003.79 1004.48 1005.26 1006.10 1006.97 1007.82 1008.62 1009.35 1009.97 1010.50
1003.60 1002.81 1002.03 1001.29 1000.63 1000.07 999.64 999.34 999.17 999.12 999.17 999.30 999.47 999.67 999.87 1000.07 1000.24 1000.38 1000.51 1000.61 1000.70 1000.78 1000.85 1000.91 1000.97 1001.04 1001.12 1001.24 1001.39 1001.62 1001.92 1002.33 1002.84 1003.47 1004.19 1005.00 1005.85 1006.71 1007.55 1008.34 1009.04 1009.65 1010.15
1003.20 1002.37 1001.58 1000.85 1000.22 999.71 999.35 999.12 999.02 999.03 999.13 999.29 999.48 999.66 999.83 999.97 1000.07 1000.14 1000.19 1000.21 1000.23 1000.25 1000.28 1000.32 1000.38 1000.46 1000.57 1000.73 1000.93 1001.21 1001.57 1002.01 1002.56 1003.19 1003.92 1004.71 1005.53 1006.37 1007.18 1007.94 1008.62 1009.21 1009.70
1002.85 1001.99 1001.18 1000.47 999.87 999.42 999.12 998.95 998.92 998.99 999.12 999.30 999.47 999.63 999.75 999.82 999.85 999.84 999.80 999.76 999.72 999.71 999.72 999.77 999.85 999.98 1000.15 1000.37 1000.64 1000.96 1001.36 1001.83 1002.37 1002.99 1003.68 1004.42 1005.19 1005.97 1006.73 1007.45 1008.10 1008.68 1009.18
1002.57 1001.69 1000.89 1000.19 999.63 999.22 998.97 998.86 998.87 998.98 999.13 999.30 999.46 999.57 999.63 999.64 999.59 999.51 999.41 999.31 999.24 999.22 999.24 999.33 999.47 999.66 999.90 1000.19 1000.52 1000.90 1001.32 1001.78 1002.31 1002.88 1003.50 1004.17 1004.86 1005.56 1006.25 1006.92 1007.55 1008.13 1008.65
1002.42 1001.54 1000.74 1000.06 999.52 999.15 998.93 998.85 998.89 999.01 999.16 999.31 999.43 999.50 999.50 999.44 999.33 999.18 999.04 998.92 998.84 998.83 998.90 999.04 999.24 999.52 999.84 1000.20 1000.59 1001.00 1001.43 1001.88 1002.36 1002.86 1003.40 1003.97 1004.57 1005.19 1005.81 1006.43 1007.03 1007.60 1008.14
1002.44 1001.56 1000.77 1000.10 999.58 999.22 999.02 998.95 998.98 999.08 999.21 999.33 999.40 999.42 999.36 999.25 999.09 998.91 998.74 998.62 998.56 998.58 998.70 998.90 999.19 999.54 999.94 1000.36 1000.79 1001.23 1001.66 1002.08 1002.50 1002.94 1003.39 1003.86 1004.36 1004.89 1005.44 1006.01 1006.59 1007.15 1007.71
1002.62 1001.76 1000.99 1000.33 999.81 999.45 999.23 999.14 999.14 999.21 999.29 999.36 999.38 999.34 999.24 999.08 998.89 998.70 998.53 998.43 998.40 998.47 998.64 998.92 999.27 999.69 1000.15 1000.63 1001.09 1001.54 1001.95 1002.34 1002.71 1003.07 1003.44 1003.83 1004.25 1004.70 1005.19 1005.72 1006.27 1006.82 1007.38
1002.94 1002.11 1001.35 1000.69 1000.17 999.78 999.53 999.40 999.35 999.36 999.38 999.39 999.36 999.28 999.14 998.96 998.76 998.57 998.42 998.34 998.35 998.48 998.70 999.03 999.45 999.92 1000.42 1000.93 1001.41 1001.85 1002.26 1002.62 1002.94 1003.25 1003.55 1003.87 1004.22 1004.62 1005.06 1005.55 1006.07 1006.61 1007.16
1003.36 1002.56 1001.81 1001.15 1000.61 1000.19 999.90 999.71 999.59 999.53 999.49 999.45 999.37 999.25 999.09 998.90 998.70 998.53 998.41 998.36 998.41 998.58 998.85 999.22 999.67 1000.17 1000.69 1001.21 1001.70 1002.14 1002.53 1002.86 1003.16 1003.42 1003.68 1003.96 1004.27 1004.62 1005.03 1005.48 1005.97 1006.49 1007.01
1003.82 1003.05 1002.32 1001.66 1001.10 1000.64 1000.29 1000.04 999.86 999.73 999.63 999.53 999.41 999.26 999.09 998.91 998.73 998.59 998.49 998.48 998.57 998.76 999.05 999.44 999.91 1000.41 1000.94 1001.46 1001.94 1002.37 1002.75 1003.07 1003.35 1003.59 1003.83 1004.08 1004.36 1004.68 1005.05 1005.47 1005.93 1006.41 1006.90
Thickness
5619 5616 5613 5610 5608 5606 5605 5604 5603 5601 5600 5599 5600 5602 5604 5606 5609 5612 5616 5620 5624 5629 5634 5642 5649 5656 5662 5669 5676 5681 5685 5689 5690 5697 5702 5701 5699 5699 5698 5697 5697 5695 5693
5611 5607 5604 5600 5597 5594 5593 5591 5589 5587 5586 5586 5587 5588 5591 5594 5597 5599 5603 5608 5611 5616 5621 5627 5635 5644 5650 5657 5663 5670 5676 5681 5683 5685 5690 5692 5691 5692 5690 5689 5689 5688 5685
5602 5597 5593 5589 5585 5582 5578 5576 5573 5572 5571 5571 5572 5574 5577 5580 5584 5587 5590 5595 5599 5604 5609 5615 5622 5628 5637 5645 5652 5658 5665 5671 5676 5679 5683 5685 5684 5684 5682 5680 5680 5679 5677
5593 5588 5583 5578 5574 5569 5565 5561 5558 5556 5556 5556 5557 5560 5563 5566 5571 5574 5578 5582 5586 5591 5597 5603 5609 5615 5623 5631 5640 5647 5653 5659 5665 5671 5676 5677 5676 5676 5675 5673 5671 5671 5671
5583 5578 5573 5568 5563 5557 5553 5548 5545 5542 5541 5541 5542 5545 5548 5552 5557 5562 5565 5570 5573 5578 5584 5590 5597 5603 5610 5618 5627 5635 5641 5648 5655 5662 5668 5670 5670 5669 5670 5669 5666 5663 5662
5574 5569 5563 5557 5551 5545 5540 5535 5531 5528 5526 5525 5526 5529 5533 5539 5544 5546 5550 5557 5563 5567 5572 5579 5585 5591 5597 5603 5613 5620 5628 5636 5645 5653 5660 5665 5667 5668 5668 5666 5662 5659 5656
5566 5560 5554 5548 5542 5535 5530 5524 5519 5515 5513 5512 5512 5515 5519 5523 5526 5530 5534 5542 5551 5557 5563 5568 5576 5584 5587 5595 5601 5607 5616 5625 5633 5643 5653 5660 5664 5667 5665 5661 5660 5659 5657
5560 5555 5548 5541 5534 5528 5521 5515 5510 5505 5502 5501 5502 5504 5507 5512 5513 5515 5520 5527 5539 5548 5553 5559 5564 5572 5579 5585 5594 5600 5609 5618 5626 5634 5644 5652 5658 5661 5661 5660 5657 5652 5647
5555 5549 5542 5535 5528 5521 5515 5509 5503 5498 5496 5494 5494 5495 5498 5502 5502 5504 5507 5517 5528 5538 5546 5552 5557 5563 5568 5573 5582 5592 5601 5610 5617 5625 5633 5640 5647 5651 5653 5651 5647 5645 5641
5551 5544 5536 5529 5522 5516 5510 5504 5499 5494 5491 5489 5489 5490 5492 5495 5496 5497 5499 5510 5522 5532 5538 5546 5548 5554 5558 5561 5571 5582 5591 5601 5610 5618 5623 5630 5637 5642 5645 5647 5648 5645 5641
5546 5539 5533 5526 5519 5513 5507 5502 5497 5492 5489 5486 5486 5487 5488 5490 5491 5492 5495 5506 5517 5525 5533 5539 5546 5545 5548 5552 5560 5572 5583 5592 5601 5610 5618 5624 5629 5633 5637 5640 5644 5647 5645
5543 5537 5531 5525 5519 5513 5506 5502 5497 5492 5488 5485 5484 5485 5486 5488 5490 5490 5493 5500 5510 5520 5528 5537 5542 5540 5542 5545 5553 5563 5571 5579 5592 5602 5610 5618 5623 5627 5630 5633 5636 5640 5642
5541 5535 5530 5525 5519 5512 5507 5502 5498 5493 5488 5485 5484 5485 5487 5489 5490 5490 5491 5497 5504 5514 5523 5529 5533 5533 5536 5541 5546 5554 5561 5574 5585 5596 5605 5612 5618 5622 5623 5624 5626 5628 5629
5540 5535 5531 5526 5521 5515 5509 5503 5499 5495 5491 5487 5486 5486 5487 5489 5491 5493 5496 5498 5501 5509 5518 5521 5523 5528 5534 5542 5547 5551 5560 5571 5581 5591 5600 5607 5611 5614 5616 5619 5620 5620 5620
5540 5535 5532 5528 5522 5516 5512 5505 5501 5496 5490 5486 5486 5487 5488 5490 5493 5495 5501 5505 5510 5516 5519 5523 5529 5534 5538 5545 5551 5557 5562 5568 5575 5585 5593 5600 5605 5608 5611 5613 5615 5617 5618
5541 5537 5533 5529 5524 5519 5514 5510 5501 5494 5488 5484 5482 5482 5487 5487 5490 5493 5496 5500 5506 5511 5516 5523 5530 5537 5542 5548 5552 5556 5561 5567 5574 5582 5589 5596 5602 5605 5606 5607 5610 5613 5615
5542 5539 5535 5531 5526 5522 5517 5513 5508 5499 5491 5486 5484 5484 5484 5486 5488 5491 5493 5496 5501 5505 5517 5525 5532 5538 5544 5549 5553 5558 5561 5567 5572 5579 5586 5594 5599 5602 5603 5604 5607 5610 5611
5545 5542 5537 5534 5529 5525 5520 5515 5511 5507 5503 5499 5491 5486 5486 5487 5488 5490 5492 5496 5503 5508 5521 5529 5534 5539 5544 5549 5553 5557 5561 5565 5569 5576 5584 5591 5596 5599 5601 5603 5606 5608 5609
5548 5545 5540 5537 5534 5529 5524 5519 5514 5509 5506 5503 5501 5494 5489 5488 5488 5490 5493 5507 5514 5518 5524 5529 5535 5540 5544 5548 5552 5555 5559 5563 5568 5574 5581 5589 5594 5598 5600 5602 5604 5603 5606
5551 5546 5542 5541 5538 5534 5528 5523 5518 5513 5509 5507 5505 5503 5499 5499 5501 5499 5503 5511 5517 5522 5526 5531 5535 5539 5543 5547 5550 5554 5558 5562 5566 5572 5579 5586 5592 5596 5599 5601 5602 5603 5604
5554 5552 5546 5545 5542 5537 5531 5525 5520 5516 5513 5511 5509 5506 5502 5507 5509 5510 5512 5516 5520 5524 5527 5531 5535 5538 5541 5545 5549 5553 5558 5562 5567 5572 5578 5584 5590 5594 5597 5599 5600 5601 5602
5557 5555 5552 5549 5545 5540 5533 5529 5525 5521 5518 5516 5514 5510 5503 5510 5512 5514 5516 5518 5521 5525 5528 5531 5535 5539 5542 5545 5549 5553 5557 5561 5565 5571 5577 5582 5588 5592 5596 5597 5598 5600 5603
5559 5559 5556 5553 5549 5541 5538 5534 5531 5527 5524 5522 5519 5517 5515 5516 5517 5517 5519 5521 5523 5525 5528 5531 5534 5538 5542 5545 5549 5553 5558 5562 5566 5572 5577 5583 5587 5591 5594 5596 5598 5599 5601
5561 5560 5559 5557 5553 5549 5543 5538 5535 5531 5529 5526 5525 5523 5522 5521 5521 5522 5523 5524 5526 5527 5529 5531 5534 5538 5541 5545 5549 5554 5558 5563 5567 5572 5579 5584 5587 5590 5593 5595 5597 5598 5599
5561 5561 5560 5559 5556 5553 5548 5544 5540 5537 5533 5531 5530 5528 5528 5527 5527 5527 5527 5527 5528 5529 5531 5533 5536 5540 5544 5547 5551 5555 5558 5562 5568 5574 5580 5584 5587 5589 5591 5593 5594 5594 5595
5559 5559 5560 5559 5558 5555 5553 5550 5546 5543 5540 5538 5536 5534 5534 5533 5532 5532 5531 5531 5532 5533 5534 5537 5540 5543 5546 5550 5552 5554 5558 5563 5568 5574 5581 5584 5586 5588 5590 5591 5592 5592 5591